Weather History for KDYT - December, 2012

Change the Weather History Date:

Saturday, December 29, 2012

  Actual Average Record
Temperature  
Mean Temperature 16 °F -  
Max Temperature 21 °F 21 °F 48 °F (1999)
Min Temperature 10 °F 5 °F -19 °F (1963)
Degree Days  
Heating Degree Days 50    
Moisture  
Dew Point 11 °F    
Average Humidity 80    
Maximum Humidity 92    
Minimum Humidity 68    
Precipitation  
Precipitation 0.00 in - - ()
Sea Level Pressure  
Sea Level Pressure 30.03 in    
Wind  
Wind Speed 6 mph (SW)    
Max Wind Speed 17 mph    
Max Gust Speed -    
Visibility 10 miles    
Events Snow    
Averages and records for this station are not official NWS values.
T = Trace of Precipitation, MM = Missing Value Source: NWS Daily Summary

Daily Weather History Graph

Daily Weather History Graph

Search for Another Location

Airport or City:

Trip Planner

Search our weather history database for the weather conditions in past years. The results will help you decide how hot, cold, wet, or windy it might be!

Date:

Astronomy

Dec. 29, 2012 Rise Set
Actual Time 7:52 AM CST 4:28 PM CST
Civil Twilight 7:17 AM CST 5:03 PM CST
Nautical Twilight 6:39 AM CST 5:42 PM CST
Astronomical Twilight 6:02 AM CST 6:18 PM CST
Moon 6:08 PM CST (12/29) 8:20 AM CST (12/29)
Length of Visible Light 9h 46m
Length of Day
8h 35m
Full, 98% of the Moon is Illuminated
Dec 29
Full
Jan 4
Last Quarter
Jan 11
New
Jan 18
First Quarter
Jan 26
Full

Hourly Weather History & Observations

Time (CST) Temp. Windchill Dew Point Humidity Pressure Visibility Wind Dir Wind Speed Gust Speed Precip Events Conditions
12:13 AM 12.2 °F 6.1 °F 10.4 °F 92% 30.00 in 10.0 mi South 3.5 mph - N/A   Overcast
12:34 AM 12.2 °F 4.3 °F 10.4 °F 92% 30.00 in 10.0 mi SSW 4.6 mph - N/A   Overcast
12:53 AM 12.2 °F 6.1 °F 8.6 °F 85% 30.00 in 10.0 mi SW 3.5 mph - N/A   Overcast
1:13 AM 12.2 °F 6.1 °F 10.4 °F 92% 30.00 in 10.0 mi SSW 3.5 mph - N/A   Scattered Clouds
1:34 AM 12.2 °F 6.1 °F 10.4 °F 92% 29.99 in 10.0 mi SSW 3.5 mph - N/A   Clear
1:53 AM 12.2 °F 6.1 °F 8.6 °F 85% 30.00 in 10.0 mi SSW 3.5 mph - N/A   Mostly Cloudy
2:13 AM 12.2 °F 6.1 °F 8.6 °F 85% 30.00 in 10.0 mi SSW 3.5 mph - N/A   Overcast
2:34 AM 10.4 °F 2.2 °F 6.8 °F 85% 30.00 in 10.0 mi SSW 4.6 mph - N/A   Overcast
2:53 AM 10.4 °F 4.0 °F 8.6 °F 92% 30.00 in 10.0 mi SSW 3.5 mph - N/A   Overcast
3:13 AM 12.2 °F 4.3 °F 10.4 °F 92% 30.00 in 10.0 mi SSW 4.6 mph - N/A   Overcast
3:34 AM 14.0 °F 8.2 °F 10.4 °F 86% 30.00 in 10.0 mi SSW 3.5 mph - N/A   Overcast
3:53 AM 14.0 °F 6.5 °F 10.4 °F 86% 30.00 in 10.0 mi South 4.6 mph - N/A   Overcast
4:13 AM 14.0 °F 6.5 °F 10.4 °F 86% 30.00 in 10.0 mi SSW 4.6 mph - N/A   Overcast
4:34 AM 14.0 °F 6.5 °F 10.4 °F 86% 29.99 in 10.0 mi SSW 4.6 mph - N/A   Overcast
4:53 AM 14.0 °F 6.5 °F 10.4 °F 86% 29.99 in 10.0 mi SSW 4.6 mph - N/A   Overcast
5:13 AM 15.8 °F 8.6 °F 12.2 °F 86% 30.00 in 10.0 mi SW 4.6 mph - N/A   Overcast
5:34 AM 14.0 °F 5.1 °F 10.4 °F 86% 30.00 in 10.0 mi SSW 5.8 mph - N/A   Overcast
5:53 AM 14.0 °F 5.1 °F 10.4 °F 86% 30.00 in 10.0 mi SW 5.8 mph - N/A   Overcast
6:13 AM 14.0 °F 8.2 °F 10.4 °F 86% 30.00 in 10.0 mi South 3.5 mph - N/A Snow Light Snow
6:34 AM 15.8 °F 10.2 °F 12.2 °F 86% 30.00 in 5.0 mi SW 3.5 mph - N/A Snow Light Snow
6:54 AM 15.8 °F 7.2 °F 12.2 °F 86% 30.00 in 10.0 mi SW 5.8 mph - N/A Snow Light Snow
7:13 AM 15.8 °F 8.6 °F 12.2 °F 86% 30.00 in 7.0 mi SW 4.6 mph - N/A Snow Light Snow
7:34 AM 14.0 °F 5.1 °F 10.4 °F 86% 30.00 in 7.0 mi SSW 5.8 mph - N/A Snow Light Snow
7:53 AM 12.2 °F 2.9 °F 8.6 °F 85% 30.00 in 10.0 mi SSW 5.8 mph - N/A   Mostly Cloudy
8:13 AM 12.2 °F 1.7 °F 10.4 °F 92% 30.01 in 10.0 mi SW 6.9 mph - N/A   Scattered Clouds
8:33 AM 12.2 °F 1.7 °F 8.6 °F 85% 30.01 in 10.0 mi SW 6.9 mph - N/A   Scattered Clouds
8:54 AM 12.2 °F 1.7 °F 10.4 °F 92% 30.01 in 10.0 mi SW 6.9 mph - N/A   Scattered Clouds
9:13 AM 14.0 °F 3.9 °F 10.4 °F 86% 30.02 in 10.0 mi SW 6.9 mph - N/A   Clear
9:33 AM 15.8 °F 7.2 °F 12.2 °F 86% 30.02 in 10.0 mi SW 5.8 mph - N/A   Scattered Clouds
9:54 AM 17.6 °F 9.3 °F 14.0 °F 86% 30.02 in 10.0 mi SW 5.8 mph - N/A   Mostly Cloudy
10:13 AM 17.6 °F 10.7 °F 14.0 °F 86% 30.02 in 10.0 mi SSW 4.6 mph - N/A   Overcast
10:33 AM 19.4 °F 11.5 °F 15.8 °F 86% 30.03 in 10.0 mi SW 5.8 mph - N/A   Overcast
10:54 AM 19.4 °F 7.2 °F 15.8 °F 86% 30.02 in 10.0 mi WSW 11.5 mph - N/A   Overcast
11:13 AM 19.4 °F 11.5 °F 15.8 °F 86% 30.02 in 10.0 mi WSW 5.8 mph - N/A   Mostly Cloudy
11:34 AM 21.2 °F 9.5 °F 17.6 °F 86% 30.01 in 10.0 mi SW 11.5 mph - N/A   Overcast
11:54 AM 21.2 °F 6.8 °F 15.8 °F 80% 30.01 in 10.0 mi West 17.3 mph - N/A   Overcast
12:14 PM 21.2 °F 8.9 °F 15.8 °F 80% 30.01 in 10.0 mi WSW 12.7 mph - N/A   Overcast
12:33 PM 19.4 °F 5.0 °F 15.8 °F 86% 30.01 in 10.0 mi West 16.1 mph - N/A   Overcast
12:54 PM 19.4 °F 5.5 °F 14.0 °F 80% 30.01 in 10.0 mi West 15.0 mph - N/A   Overcast
1:13 PM 19.4 °F 6.0 °F 12.2 °F 74% 30.00 in 10.0 mi WSW 13.8 mph - N/A Snow Light Snow
1:33 PM 17.6 °F 5.7 °F 12.2 °F 79% 30.00 in 10.0 mi SW 10.4 mph - N/A Snow Light Snow
1:54 PM 17.6 °F 5.7 °F 12.2 °F 79% 30.00 in 10.0 mi WSW 10.4 mph - N/A Snow Light Snow
2:13 PM 19.4 °F 8.6 °F 10.4 °F 68% 30.01 in 10.0 mi West 9.2 mph - N/A   Overcast
2:33 PM 19.4 °F 9.5 °F 10.4 °F 68% 30.01 in 10.0 mi WSW 8.1 mph - N/A   Overcast
2:54 PM 17.6 °F 7.3 °F 10.4 °F 73% 30.01 in 10.0 mi WSW 8.1 mph - N/A   Mostly Cloudy
3:13 PM 19.4 °F 9.5 °F 10.4 °F 68% 30.01 in 10.0 mi West 8.1 mph - N/A   Overcast
3:33 PM 19.4 °F 11.5 °F 12.2 °F 74% 30.01 in 10.0 mi West 5.8 mph - N/A   Overcast
3:54 PM 19.4 °F 12.8 °F 12.2 °F 74% 30.01 in 10.0 mi West 4.6 mph - N/A   Overcast
4:13 PM 19.4 °F 7.9 °F 10.4 °F 68% 30.02 in 10.0 mi WSW 10.4 mph - N/A   Overcast
4:34 PM 19.4 °F 7.9 °F 10.4 °F 68% 30.03 in 10.0 mi West 10.4 mph - N/A Snow Light Snow
5:14 PM 19.4 °F 7.9 °F 10.4 °F 68% 30.04 in 10.0 mi West 10.4 mph - N/A   Overcast
5:34 PM 19.4 °F 8.6 °F 10.4 °F 68% 30.04 in 10.0 mi West 9.2 mph - N/A   Overcast
5:53 PM 19.4 °F 7.2 °F 12.2 °F 74% 30.04 in 10.0 mi West 11.5 mph - N/A Snow Light Snow
6:14 PM 17.6 °F 5.0 °F 10.4 °F 73% 30.05 in 10.0 mi West 11.5 mph - N/A   Overcast
6:34 PM 17.6 °F 5.0 °F 10.4 °F 73% 30.05 in 10.0 mi West 11.5 mph - N/A   Overcast
6:53 PM 17.6 °F 6.4 °F 10.4 °F 73% 30.06 in 10.0 mi West 9.2 mph - N/A   Overcast
7:14 PM 17.6 °F 7.3 °F 10.4 °F 73% 30.06 in 10.0 mi WSW 8.1 mph - N/A   Overcast
7:33 PM 17.6 °F 8.2 °F 10.4 °F 73% 30.07 in 10.0 mi West 6.9 mph - N/A   Overcast
7:53 PM 17.6 °F 6.4 °F 10.4 °F 73% 30.07 in 10.0 mi West 9.2 mph - N/A   Overcast
8:33 PM 17.6 °F 9.3 °F 10.4 °F 73% 30.07 in 10.0 mi WSW 5.8 mph - N/A   Overcast
8:54 PM 17.6 °F 8.2 °F 10.4 °F 73% 30.07 in 10.0 mi West 6.9 mph - N/A Snow Light Snow
9:13 PM 17.6 °F 6.4 °F 10.4 °F 73% 30.08 in 10.0 mi WSW 9.2 mph - N/A Snow Light Snow
9:34 PM 17.6 °F 7.3 °F 8.6 °F 68% 30.09 in 10.0 mi WSW 8.1 mph - N/A   Overcast
9:53 PM 17.6 °F 6.4 °F 8.6 °F 68% 30.09 in 10.0 mi West 9.2 mph - N/A   Overcast
10:14 PM 17.6 °F 6.4 °F 10.4 °F 73% 30.10 in 7.0 mi WNW 9.2 mph - N/A Snow Light Snow
10:33 PM 15.8 °F 7.2 °F 10.4 °F 79% 30.10 in 10.0 mi WNW 5.8 mph - N/A Snow Light Snow
10:53 PM 15.8 °F 3.4 °F 8.6 °F 73% 30.10 in 10.0 mi West 10.4 mph - N/A   Overcast
11:14 PM 15.8 °F 7.2 °F 8.6 °F 73% 30.10 in 10.0 mi WSW 5.8 mph - N/A   Overcast
11:33 PM 15.8 °F 6.1 °F 6.8 °F 68% 30.10 in 10.0 mi West 6.9 mph - N/A   Overcast
11:53 PM 15.8 °F 4.2 °F 6.8 °F 68% 30.11 in 10.0 mi West 9.2 mph - N/A   Overcast